DB2YI-13 Weather Reports


time (UTC)temp
C
wind
direction
speed
KPH
gust
KPH
rain 1hr
cm
rain 24hr
cm
rain mn
cm
humidity
%
barometer
mb
20260506112001 15 0 0.0 1.6 0.00 1.17 0.15 77
20260506111001 15 0 0.0 0.0 0.00 1.17 0.15 76
20260506110004 15 0 0.0 1.6 0.00 1.17 0.15 76
20260506105002 15 0 1.6 1.6 0.00 1.17 0.15 77
20260506104005 15 0 0.0 0.0 0.00 1.17 0.15 77
20260506103001 15 0 0.0 0.0 0.00 1.17 0.15 78
20260506102001 15 0 0.0 1.6 0.00 1.17 0.15 79
20260506101001 15 0 0.0 0.0 0.00 1.17 0.15 80
20260506100001 15 0 0.0 0.0 0.00 1.17 0.15 80
20260506095001 15 0 1.6 1.6 0.00 1.17 0.15 79
20260506094002 15 0 0.0 0.0 0.00 1.17 0.15 79
20260506093001 15 0 0.0 0.0 0.00 1.17 0.15 80
20260506092001 15 0 0.0 0.0 0.00 1.17 0.15 83
20260506091001 14 0 1.6 3.2 0.00 1.17 0.15 83
20260506090001 14 0 0.0 0.0 0.00 1.17 0.15 83
20260506085001 14 0 0.0 1.6 0.00 1.17 0.15 84
20260506084001 14 0 0.0 1.6 0.00 1.17 0.15 84
20260506083001 14 0 1.6 1.6 0.00 1.17 0.15 85
20260506082001 14 0 1.6 3.2 0.00 1.17 0.15 85
20260506081001 14 0 1.6 3.2 0.00 1.17 0.15 86
20260506073001 15 0 0.0 0.0 0.00 1.17 0.15 93
20260506072002 13 0 0.0 0.0 0.00 1.17 0.15 95
20260506071001 13 0 0.0 0.0 0.00 1.17 0.15 95
20260506062001 12 0 0.0 0.0 0.00 1.17 0.15 96
20260506061001 12 0 0.0 0.0 0.00 1.17 0.15 96
20260506051001 12 0 0.0 0.0 0.03 1.17 0.15 96
20260506044001 12 0 0.0 0.0 0.03 1.17 0.15 96
20260506043001 12 0 0.0 0.0 0.03 1.17 0.15 96
20260506042001 12 0 0.0 0.0 0.03 1.17 0.15 96
20260506041001 12 0 0.0 0.0 0.03 1.17 0.15 96
20260506040001 12 0 0.0 0.0 0.00 1.14 0.13 96
20260506035005 12 0 0.0 0.0 0.00 1.14 0.13 96
20260506034001 12 0 0.0 0.0 0.00 1.14 0.13 96
20260506033001 12 0 0.0 0.0 0.00 1.14 0.13 96
20260506032001 12 0 0.0 0.0 0.00 1.14 0.13 96
20260506031004 12 0 0.0 0.0 0.00 1.14 0.13 96
20260506030002 12 0 0.0 0.0 0.00 1.14 0.13 96
20260506025001 12 0 0.0 0.0 0.05 1.14 0.13 96
20260506024001 12 0 0.0 0.0 0.10 1.14 0.13 96
20260506023001 12 0 0.0 0.0 0.10 1.14 0.13 96
20260506022001 12 0 0.0 0.0 0.10 1.14 0.13 96
20260506021001 12 0 0.0 0.0 0.10 1.14 0.13 96
20260506020001 12 0 0.0 0.0 0.10 1.14 0.13 96
20260506015001 12 0 0.0 0.0 0.10 1.14 0.13 96
20260506014001 12 0 0.0 0.0 0.05 1.09 0.08 96
20260506013001 12 0 0.0 0.0 0.03 1.04 0.03 96
20260506012001 12 0 0.0 0.0 0.03 1.04 0.03 96
20260506011001 12 0 0.0 0.0 0.03 1.04 0.03 96
20260506010001 12 0 0.0 0.0 0.03 1.04 0.03 96
20260506005006 12 0 0.0 0.0 0.03 1.04 0.03 96
20260506004002 12 0 0.0 0.0 0.03 1.04 0.03 96
20260506003001 12 0 0.0 0.0 0.03 1.04 0.03 95
20260506002010 12 0 0.0 0.0 0.00 1.02 0.00 96
20260506001006 12 0 0.0 0.0 0.00 1.02 0.00 95
20260506000001 12 0 0.0 0.0 0.00 1.02 0.00 95
20260505235001 12 0 0.0 0.0 0.00 1.02 0.00 95
20260505234001 12 0 0.0 0.0 0.00 1.02 0.00 95
20260505233001 12 0 0.0 0.0 0.00 1.02 0.00 95
20260505232001 12 0 0.0 0.0 0.00 1.02 0.00 95
20260505231001 12 0 0.0 0.0 0.00 1.07 0.00 95
20260505230001 13 0 0.0 0.0 0.00 1.07 0.00 95
20260505225002 13 0 0.0 0.0 0.00 1.07 0.00 95
20260505224003 13 0 0.0 0.0 0.00 1.09 0.00 95
20260505223001 13 0 0.0 0.0 0.00 1.09 0.00 95
20260505222001 13 0 0.0 0.0 0.00 1.09 0.00 95
20260505221002 13 0 0.0 0.0 0.00 1.09 0.00 95
20260505220001 13 0 0.0 0.0 0.00 1.09 1.09 95
20260505215001 13 0 0.0 0.0 0.03 1.09 1.09 96
20260505214002 13 0 0.0 0.0 0.03 1.09 1.09 95
20260505213002 13 0 0.0 0.0 0.18 1.09 1.09 95
20260505212001 13 0 0.0 0.0 0.25 1.09 1.09 95
20260505211001 13 0 0.0 0.0 0.28 1.09 1.09 95
20260505210002 13 0 0.0 0.0 0.28 1.09 1.09 95
20260505205001 13 0 0.0 0.0 0.28 1.09 1.09 95
20260505204007 13 0 0.0 0.0 0.25 1.07 1.07 95
20260505203001 13 0 0.0 0.0 0.25 1.07 1.07 95
20260505202001 13 0 0.0 0.0 0.15 0.91 0.91 95
20260505201002 13 0 0.0 0.0 0.05 0.81 0.81 95
20260505200002 13 0 0.0 0.0 0.05 0.79 0.79 94
20260505195002 13 0 0.0 0.0 0.08 0.79 0.79 94
20260505194002 13 0 0.0 0.0 0.08 0.79 0.79 94
20260505193001 13 0 0.0 0.0 0.10 0.79 0.79 94
20260505192001 13 0 0.0 0.0 0.13 0.79 0.79 94
20260505191005 13 0 0.0 0.0 0.10 0.79 0.79 94
20260505190003 13 0 0.0 0.0 0.13 0.79 0.79 94
20260505185002 13 0 0.0 0.0 0.10 0.76 0.76 94
20260505184001 13 0 0.0 0.0 0.10 0.74 0.74 94
20260505183005 13 0 0.0 0.0 0.13 0.71 0.71 93
20260505182002 13 0 0.0 0.0 0.10 0.69 0.69 93
20260505181001 13 0 0.0 0.0 0.08 0.66 0.66 93
20260505180001 13 0 0.0 0.0 0.10 0.66 0.66 93
20260505175001 13 0 0.0 0.0 0.08 0.64 0.64 93
20260505174001 13 0 0.0 0.0 0.10 0.64 0.64 92
20260505173001 13 0 0.0 0.0 0.10 0.61 0.61 92
20260505172001 13 0 0.0 0.0 0.15 0.58 0.58 92
20260505171001 13 0 0.0 0.0 0.28 0.58 0.58 91
20260505170003 13 0 0.0 0.0 0.36 0.58 0.58 91
20260505165001 13 0 0.0 0.0 0.46 0.56 0.56 91
20260505164001 13 0 0.0 0.0 0.48 0.56 0.56 91
20260505163001 13 0 0.0 0.0 0.46 0.53 0.53 91
20260505162001 13 0 0.0 0.0 0.46 0.51 0.51 89
20260505161001 13 0 0.0 0.0 0.38 0.46 0.46 88
20260505153005 15 0 3.2 4.8 0.05 0.13 0.13 80
20260505152001 16 0 4.8 4.8 0.03 0.10 0.10 78
20260505151003 16 0 12.9 27.4 0.03 0.10 0.10 75
20260505125001 19 0 0.0 0.0 0.00 0.08 0.08 67
20260505124002 18 0 0.0 0.0 0.00 0.08 0.08 67
20260505123001 18 0 0.0 0.0 0.00 0.08 0.08 67
20260505122003 18 0 0.0 0.0 0.00 0.08 0.08 67
20260505121005 18 0 0.0 0.0 0.00 0.08 0.08 67
20260505120002 18 0 0.0 0.0 0.00 0.08 0.08 67
20260505115003 18 0 1.6 8.0 0.00 0.08 0.08 68
20260505114003 18 0 0.0 0.0 0.00 0.08 0.08 67
20260505113001 19 0 0.0 0.0 0.00 0.08 0.08 66